Home > Weather > Flagstaff > Past weeks

Flag for USA Past Weather in Flagstaff, Arizona, USA — Yesterday and Last 2 Weeks

Now
38 °F

Clear.


Feels Like: 38 °F
Forecast: 38 / 74 °F
Wind: No wind

Location: Flagstaff Pulliam Airport

Current Time: May 31, 2016 at 3:17:05 AM

Latest Report: May 31, 2016 at 1:57 AM


Visibility: 10 mi

Pressure: 29.88 "Hg (23.04 "Hg at 2103m altitude)

Humidity: 60%

Dew Point: 25 °F

Location of FlagstaffLocation

Past Weather in Flagstaff — Graph

°F

Flagstaff Temperature Yesterday

Maximum temperature yesterday: 70 °F (at 1:57 PM)
Minimum temperature yesterday: 36 °F (at 5:57 AM)
Average temperature yesterday: 54 °F

High & Low Weather Summary for the Past Weeks

 TemperatureHumidityPressure
High71 °F (May 29, 3:57 PM)100% (May 17, 11:57 PM)30.09 "Hg (May 17, 11:57 PM)
Low31 °F (May 19, 3:57 AM)10% (May 29, 4:57 PM)29.71 "Hg (May 21, 1:57 AM)
Average50 °F48%29.88 "Hg
* Reported May 16 12:57 AM — May 31 12:57 AM, Flagstaff, Weather by CustomWeather, © 2016

Note: Actual official high and low records may vary slightly from our data, if they occured in-between our weather recording intervals... More about our weather records

Advertising

Flagstaff Weather History for the Previous 24 Hours

Scroll right to see more
 ConditionsComfort  
Time TempWeatherWind HumidityBarometerVisibility
12:57 AM
Tue, May 31
38 °FClear.No wind63%29.89 "Hg10 mi
11:57 PM
Mon, May 30
41 °FClear.No wind58%29.90 "Hg10 mi
10:57 PM44 °FClear.No wind51%29.91 "Hg10 mi
9:57 PM48 °FPassing clouds.3 mph44%29.90 "Hg10 mi
8:57 PM53 °FOvercast.No wind37%29.88 "Hg10 mi
7:57 PM59 °FPassing clouds.3 mph28%29.85 "Hg10 mi
6:57 PM62 °FSunny.6 mph25%29.87 "Hg10 mi
5:57 PM64 °FSunny.10 mph22%29.92 "Hg10 mi
4:57 PM66 °FScattered clouds.6 mph19%29.90 "Hg10 mi
3:57 PM64 °FPartly sunny.12 mph22%29.91 "Hg10 mi
2:57 PM67 °FOvercast.6 mph17%29.89 "Hg10 mi
1:57 PM70 °FPartly sunny.10 mph14%29.90 "Hg10 mi
12:57 PM69 °FSunny.N/A16%29.92 "Hg10 mi
11:57 AM67 °FScattered clouds.10 mph17%29.95 "Hg10 mi
10:57 AM64 °FScattered clouds.3 mph20%29.96 "Hg10 mi
9:57 AM64 °FSunny.N/A23%29.96 "Hg10 mi
8:57 AM62 °FSunny.7 mph22%29.95 "Hg10 mi
7:57 AM60 °FSunny.No wind26%29.95 "Hg10 mi
6:57 AM49 °FSunny.No wind39%29.96 "Hg10 mi
5:57 AM36 °FSunny.3 mph54%29.99 "Hg10 mi
4:57 AM37 °FClear.3 mph48%29.96 "Hg10 mi
3:57 AM40 °FClear.No wind41%29.94 "Hg10 mi
Weather by CustomWeather, © 2016

See weather overviewHow to use our weather pages